TimeEST,TemperatureF,Dew PointF,Humidity,Sea Level PressureIn,VisibilityMPH,Wind Direction,Wind SpeedMPH,Gust SpeedMPH,PrecipitationIn,Events,Conditions,WindDirDegrees,DateUTC
12:51 AM,43.0,39.0,86,29.68,10.0,West,3.5,-,N/A,,Scattered Clouds,260,2013-02-28 05:51:00
1:51 AM,43.0,37.9,82,29.66,10.0,SSW,4.6,-,N/A,,Clear,200,2013-02-28 06:51:00
2:51 AM,41.0,37.0,86,29.65,10.0,SSW,3.5,-,N/A,,Partly Cloudy,210,2013-02-28 07:51:00
3:51 AM,42.1,39.0,89,29.65,10.0,SW,4.6,-,N/A,,Mostly Cloudy,220,2013-02-28 08:51:00
4:51 AM,45.0,39.0,80,29.66,10.0,West,4.6,-,N/A,,Overcast,270,2013-02-28 09:51:00
5:51 AM,46.0,36.0,68,29.66,10.0,WSW,3.5,-,N/A,,Overcast,250,2013-02-28 10:51:00
6:51 AM,45.0,35.1,68,29.67,10.0,WSW,6.9,-,N/A,,Mostly Cloudy,250,2013-02-28 11:51:00
7:51 AM,46.0,35.1,66,29.68,10.0,West,8.1,-,N/A,,Mostly Cloudy,270,2013-02-28 12:51:00
8:51 AM,48.2,33.8,58,29.69,10.0,West,9.2,17.3,N/A,,Clear,270,2013-02-28 13:51:00
9:51 AM,48.9,35.1,59,29.69,10.0,West,9.2,17.3,N/A,,Clear,270,2013-02-28 14:51:00
10:51 AM,48.9,36.0,61,29.70,10.0,West,3.5,-,N/A,,Overcast,270,2013-02-28 15:51:00
11:09 AM,46.4,37.4,71,29.70,10.0,NNE,10.4,-,N/A,,Overcast,20,2013-02-28 16:09:00
11:39 AM,46.4,39.2,76,29.70,10.0,NNE,10.4,-,N/A,,Overcast,30,2013-02-28 16:39:00
11:51 AM,46.0,39.0,76,29.69,10.0,NE,9.2,-,N/A,,Overcast,40,2013-02-28 16:51:00
12:51 PM,45.0,37.9,76,29.67,10.0,NE,11.5,-,N/A,,Overcast,40,2013-02-28 17:51:00
1:51 PM,46.0,35.1,66,29.66,10.0,NNE,9.2,-,N/A,,Overcast,30,2013-02-28 18:51:00
2:51 PM,43.0,34.0,71,29.67,10.0,North,9.2,-,N/A,,Overcast,360,2013-02-28 19:51:00
3:51 PM,44.1,36.0,73,29.68,10.0,Calm,Calm,-,N/A,,Overcast,0,2013-02-28 20:51:00
4:51 PM,44.1,36.0,73,29.68,10.0,Calm,Calm,-,N/A,,Overcast,0,2013-02-28 21:51:00
5:51 PM,46.0,30.9,56,29.70,10.0,Variable,5.8,-,N/A,,Overcast,0,2013-02-28 22:51:00
6:51 PM,45.0,28.0,52,29.73,10.0,Variable,3.5,-,N/A,,Partly Cloudy,0,2013-02-28 23:51:00
7:51 PM,44.1,28.0,53,29.74,10.0,West,4.6,-,N/A,,Clear,280,2013-03-01 00:51:00
8:51 PM,42.1,28.9,60,29.75,10.0,WSW,4.6,-,N/A,,Clear,250,2013-03-01 01:51:00
9:51 PM,43.0,28.0,56,29.75,10.0,WSW,6.9,-,N/A,,Clear,250,2013-03-01 02:51:00
10:51 PM,42.1,27.0,55,29.76,10.0,West,4.6,-,N/A,,Partly Cloudy,270,2013-03-01 03:51:00
11:51 PM,41.0,27.0,57,29.76,10.0,West,5.8,-,N/A,,Clear,260,2013-03-01 04:51:00